Dublin, Ireland

10:00 PM IST on October 17, 2017 (GMT +0100)
Dublin International

Weather History for EIDW - August, 2013

Change the Weather History Date:

Sunday, August 18, 2013

  Actual Average Record
Temperature  
Mean Temperature 58 °F -  
Max Temperature 64 °F 63 °F 73 °F (1996)
Min Temperature 52 °F 50 °F 42 °F (2011)
Degree Days  
Heating Degree Days 7    
Growing Degree Days 8 (Base 50)    
Moisture  
Dew Point 50 °F    
Average Humidity 77    
Maximum Humidity 94    
Minimum Humidity 47    
Precipitation  
Precipitation 0.00 in 0.09 in - ()
Sea Level Pressure  
Sea Level Pressure 29.75 in    
Wind  
Wind Speed 13 mph ()    
Max Wind Speed 22 mph    
Max Gust Speed -    
Visibility 6.7 miles    
Events Rain    
Averages and records for this station are not official NWS values.
T = Trace of Precipitation, MM = Missing Value Source: Averaged Metar Reports

Daily Weather History Graph

Daily Weather History Graph

Search for Another Location

Airport or City:

Trip Planner

Search our weather history database for the weather conditions in past years. The results will help you decide how hot, cold, wet, or windy it might be!

Date:

Astronomy

Aug. 18, 2013 Rise Set
Actual Time 6:10 AM IST 8:46 PM IST
Civil Twilight 5:30 AM IST 9:25 PM IST
Nautical Twilight 4:40 AM IST 10:15 PM IST
Astronomical Twilight 3:37 AM IST 11:16 PM IST
Moon 6:50 PM IST (8/18) 2:49 AM IST (8/18)
Length of Visible Light 15h 54m
Length of Day
14h 36m
Waxing Gibbous, 90% of the Moon is Illuminated
Aug 18
Waxing Gibbous
Aug 21
Full
Aug 28
Last Quarter
Sep 5
New
Sep 12
First Quarter

Hourly Weather History & Observations

Time (IST) Temp. Dew Point Humidity Pressure Visibility Wind Dir Wind Speed Gust Speed Precip Events Conditions
12:00 AM 55.4 °F 51.8 °F 88% 29.62 in 6.2 mi WSW 11.5 mph - N/A   Partly Cloudy
12:30 AM 55.4 °F 51.8 °F 88% 29.62 in 6.2 mi WSW 11.5 mph - N/A   Partly Cloudy
1:00 AM 54 °F 51 °F 86% 29.65 in 19 mi SW 11.2 mph - -   Partly Cloudy
1:00 AM 53.6 °F 51.8 °F 94% 29.62 in 6.2 mi SW 11.5 mph - N/A   Partly Cloudy
1:30 AM 53.6 °F 51.8 °F 94% 29.62 in 6.2 mi SW 10.4 mph - N/A   Partly Cloudy
2:00 AM 53.6 °F 50.0 °F 88% 29.65 in 6.2 mi WSW 10.4 mph - N/A   Partly Cloudy
2:30 AM 53.6 °F 50.0 °F 88% 29.65 in 6.2 mi SW 11.5 mph - N/A   Partly Cloudy
3:00 AM 53.6 °F 50.0 °F 88% 29.65 in 6.2 mi WSW 11.5 mph - N/A   Partly Cloudy
3:30 AM 53.6 °F 50.0 °F 88% 29.65 in 6.2 mi WSW 12.7 mph - N/A   Partly Cloudy
4:00 AM 53.6 °F 50.0 °F 88% 29.65 in 6.2 mi WSW 12.7 mph - N/A   Partly Cloudy
4:30 AM 53.6 °F 51.8 °F 94% 29.65 in 6.2 mi WSW 15.0 mph - N/A   Mostly Cloudy
5:00 AM 53.6 °F 51.8 °F 94% 29.65 in 6.2 mi WSW 15.0 mph - N/A   Mostly Cloudy
5:30 AM 53.6 °F 51.8 °F 94% 29.65 in 6.2 mi WSW 13.8 mph - N/A   Mostly Cloudy
6:00 AM 53.6 °F 51.8 °F 94% 29.68 in 6.2 mi WSW 13.8 mph - N/A   Mostly Cloudy
6:30 AM 53.6 °F 51.8 °F 94% 29.68 in 6.2 mi WSW 12.7 mph - N/A   Mostly Cloudy
7:00 AM 54 °F 51 °F 87% 29.70 in 19 mi WSW 13.4 mph - -   Partly Cloudy
7:00 AM 53.6 °F 51.8 °F 94% 29.68 in 6.2 mi WSW 12.7 mph - N/A   Mostly Cloudy
7:30 AM 55.4 °F 51.8 °F 88% 29.71 in 6.2 mi WSW 13.8 mph - N/A   Mostly Cloudy
8:00 AM 53.6 °F 51.8 °F 94% 29.71 in 5.0 mi West 16.1 mph - N/A Rain Light Rain
8:30 AM 55.4 °F 51.8 °F 88% 29.71 in 6.2 mi WSW 13.8 mph - N/A   Mostly Cloudy
9:00 AM 55.4 °F 51.8 °F 88% 29.74 in 6.2 mi WSW 13.8 mph - N/A   Mostly Cloudy
9:30 AM 57.2 °F 51.8 °F 82% 29.74 in 6.2 mi WSW 16.1 mph - N/A   Mostly Cloudy
10:00 AM 57.2 °F 51.8 °F 82% 29.74 in 6.2 mi WSW 15.0 mph - N/A   Mostly Cloudy
10:30 AM 59.0 °F 51.8 °F 77% 29.74 in 6.2 mi West 13.8 mph - N/A   Mostly Cloudy
11:00 AM 59.0 °F 50.0 °F 72% 29.74 in 6.2 mi West 18.4 mph - N/A   Scattered Clouds
11:30 AM 60.8 °F 50.0 °F 68% 29.74 in 6.2 mi WSW 18.4 mph - N/A   Scattered Clouds
12:00 PM 62.6 °F 50.0 °F 63% 29.74 in 6.2 mi WSW 20.7 mph - N/A   Scattered Clouds
12:30 PM 60.8 °F 48.2 °F 63% 29.74 in 6.2 mi WSW 18.4 mph - N/A   Scattered Clouds
1:00 PM 64 °F 49 °F 47% 29.77 in 28 mi West 17.9 mph - -   Partly Cloudy
1:00 PM 64.4 °F 48.2 °F 56% 29.77 in 6.2 mi West 17.3 mph - N/A   Scattered Clouds
1:30 PM 64.4 °F 46.4 °F 52% 29.77 in 6.2 mi West 19.6 mph - N/A   Scattered Clouds
2:00 PM 62.6 °F 48.2 °F 59% 29.77 in 6.2 mi West 19.6 mph - N/A   Mostly Cloudy
2:30 PM 64.4 °F 50.0 °F 59% 29.77 in 6.2 mi WSW 18.4 mph - N/A   Mostly Cloudy
3:00 PM 59.0 °F 50.0 °F 72% 29.77 in 6.2 mi West 21.9 mph - N/A   Mostly Cloudy
3:30 PM 62.6 °F 48.2 °F 59% 29.77 in 6.2 mi West 18.4 mph - N/A   Mostly Cloudy
4:00 PM 62.6 °F 48.2 °F 59% 29.77 in 6.2 mi West 19.6 mph - N/A   Mostly Cloudy
4:30 PM 62.6 °F 51.8 °F 68% 29.80 in 6.2 mi West 19.6 mph - N/A   Mostly Cloudy
5:00 PM 62.6 °F 50.0 °F 63% 29.80 in 6.2 mi West 17.3 mph - N/A   Mostly Cloudy
5:30 PM 62.6 °F 50.0 °F 63% 29.80 in 6.2 mi West 15.0 mph - N/A   Mostly Cloudy
6:00 PM 62.6 °F 48.2 °F 59% 29.80 in 6.2 mi West 20.7 mph - N/A   Mostly Cloudy
6:30 PM 59.0 °F 50.0 °F 72% 29.83 in 6.2 mi WNW 16.1 mph - N/A   Mostly Cloudy
7:00 PM 60 °F 50 °F 60% 29.83 in 31 mi West 8.9 mph - -   Partly Cloudy
7:00 PM 59.0 °F 50.0 °F 72% 29.83 in 6.2 mi West 9.2 mph - N/A   Mostly Cloudy
7:30 PM 59.0 °F 48.2 °F 67% 29.83 in 6.2 mi WNW 9.2 mph - N/A   Mostly Cloudy
8:00 PM 59.0 °F 50.0 °F 72% 29.83 in 6.2 mi West 8.1 mph - N/A   Mostly Cloudy
8:30 PM 59.0 °F 50.0 °F 72% 29.83 in 6.2 mi West 11.5 mph - N/A Rain Light Rain Showers
9:00 PM 57.2 °F 50.0 °F 77% 29.86 in 6.2 mi West 11.5 mph - N/A   Mostly Cloudy
9:30 PM 57.2 °F 50.0 °F 77% 29.86 in 6.2 mi West 10.4 mph - N/A   Mostly Cloudy
10:00 PM 57.2 °F 50.0 °F 77% 29.89 in 6.2 mi West 11.5 mph - N/A   Mostly Cloudy
10:30 PM 55.4 °F 50.0 °F 82% 29.89 in 6.2 mi West 10.4 mph - N/A   Mostly Cloudy
11:00 PM 55.4 °F 48.2 °F 77% 29.89 in 6.2 mi WSW 8.1 mph - N/A   Mostly Cloudy
11:30 PM 55.4 °F 48.2 °F 77% 29.92 in 6.2 mi WSW 9.2 mph - N/A   Mostly Cloudy